Overview Statistics Trail Chart Weather Telemetry Raw packets
 

This is the latest recevied weather packets stored in our database for station/object KA6UPU-1. If no packets are shown the sender has not sent any weather packets the latest 10 day(s).

<< 15 16 17 18 19 20 21 >>
Time Temp. Humidity Pressure Rain* Wind** Luminosity Snow
1788552675 23.89° C 45% 1013.5 hPa 0 mm - - -
1788552375 23.89° C 46% 1013.4 hPa 0 mm - - -
1788552075 23.89° C 47% 1013.4 hPa 0 mm - - -
1788551775 23.89° C 44% 1013.5 hPa 0 mm - - -
1788551475 23.33° C 46% 1013.5 hPa 0 mm - - -
1788550575 23.33° C 48% 1013.5 hPa 0 mm - - -
1788550275 23.33° C 47% 1013.6 hPa 0 mm - - -
1788549977 23.33° C 48% 1013.6 hPa 0 mm - - -
1788549675 22.78° C 50% 1013.7 hPa 0 mm - - -
1788548414 22.78° C 49% 1013.8 hPa 0 mm - - -
1788547814 22.22° C 52% 1013.8 hPa 0 mm - - -
1788546914 21.67° C 55% 1013.8 hPa 0 mm - - -
1788546314 20.56° C 57% 1014 hPa 0 mm - - -
1788545414 20.56° C 63% 1013.8 hPa 0 mm - - -
1788545114 20.56° C 61% 1013.8 hPa 0 mm - - -
1788544814 20.56° C 62% 1013.9 hPa 0 mm - - -
1788544514 20° C 66% 1013.9 hPa 0 mm - - -
1788543614 20° C 69% 1014 hPa 0 mm - - -
1788542087 18.89° C 71% 1014 hPa 0 mm - - -
1788541487 18.89° C 72% 1013.8 hPa 0 mm - - -
1788539726 17.78° C 76% 1013.6 hPa 0 mm - - -
1788539426 17.78° C 77% 1013.6 hPa 0 mm - - -
1788539126 17.78° C 78% 1013.5 hPa 0 mm - - -
1788538827 17.78° C 81% 1013.5 hPa 0 mm - - -
1788538526 17.22° C 81% 1013.5 hPa 0 mm - - -

* Rain latest hour (hover to see other rain measurements)
** Current wind speed in m/s (hover to see current wind gust speed)